Flag for U.S.A. Weather past 2 weeks in Fayetteville, North Carolina, U.S.A.

Now
40 °F

Sunny.


Feels Like: 32 °F
Forecast: 38 / 65 °F
Wind: 13 mph from Northeast

Location: Fayetteville Regional Airport


UV Index: 5 (Moderate)

Visibility: 10 mi


Pressure: 30.47 "Hg

Humidity: 73%

Dew point: 32 °F

Location of FayettevilleLocation

Historic Weather in Fayetteville

°F

Fayetteville temperature yesterday

Maximum temperature yesterday: 56 °F (at 4:53 PM)
Minimum temperature yesterday: 36 °F (at 6:53 AM)
Average temperature yesterday: 46 °F

Past Weeks' High & Low Weather Summary

 TemperatureHumidityPressure
High87 °F (Apr 2, 3:53 PM)97% (Apr 13, 7:03 AM)30.47 "Hg (Apr 13, 7:03 AM)
Low35 °F (Apr 17, 4:53 AM)16% (Apr 2, 3:53 PM)29.57 "Hg (Apr 8, 1:53 PM)
Average64 °F58%30.00 "Hg
* Reported Apr 2 7:53 AM — Apr 17 7:53 AM, Fayetteville, Weather by CustomWeather, © 2014

Note: Actual official high and low records may vary slightly from our data, if they occured in-between our weather recording intervals... More about our weather records

Advertising

Historic Weather Conditions — Data for Previous 24 hours

 ConditionsComfort  
Time TempWeatherWind HumidityBarometerVisibility
7:53 AM
Apr 17
40 °FSunny.13 mph73%30.47 "Hg10 mi
6:53 AM36 °FClear.13 mph82%30.45 "Hg10 mi
5:53 AM36 °FClear.12 mph79%30.45 "Hg10 mi
4:53 AM35 °FClear.8 mph82%30.44 "Hg10 mi
3:53 AM36 °FClear.7 mph82%30.44 "Hg10 mi
2:53 AM36 °FClear.6 mph82%30.43 "Hg10 mi
1:53 AM39 °FClear.5 mph73%30.44 "Hg10 mi
12:53 AM41 °FClear.5 mph67%30.43 "Hg10 mi
11:53 PM
Apr 16
43 °FClear.8 mph62%30.42 "Hg10 mi
10:53 PM43 °FClear.6 mph65%30.40 "Hg10 mi
9:53 PM44 °FClear.5 mph60%30.40 "Hg10 mi
8:53 PM47 °FClear.6 mph52%30.38 "Hg10 mi
7:53 PM49 °FSunny.7 mph46%30.36 "Hg10 mi
6:53 PM54 °FSunny.8 mph34%30.34 "Hg10 mi
5:53 PM55 °FSunny.9 mph29%30.33 "Hg10 mi
4:53 PM56 °FSunny.10 mph29%30.32 "Hg10 mi
3:53 PM55 °FSunny.12 mph31%30.32 "Hg10 mi
2:53 PM55 °FSunny.12 mph30%30.33 "Hg10 mi
1:53 PM52 °FSunny.13 mph32%30.34 "Hg10 mi
12:53 PM51 °FSunny.17 mph33%30.34 "Hg10 mi
11:53 AM48 °FSunny.17 mph36%30.35 "Hg10 mi
10:53 AM46 °FSunny.17 mph42%30.36 "Hg10 mi
9:53 AM43 °FSunny.17 mph47%30.34 "Hg10 mi
Weather by CustomWeather, © 2014

See weather overview